THOR ABLESTAR DEB, 416

Orbit data source: Space-Track

THOR ABLESTAR DEB, 416 is space debris in LEO originally from a launch on Thu, 29 Jun 1961 UTC launched from the Air Force Eastern Test Range (AFETR). Debris objects in space refer to the collection of defunct objects orbiting the Earth. Examples of debris include non-operational satellites, rocket bodies, and fragments generated from explosions, collisions, or faulty payload assembly.

Loading next visibility...
Identifier
416, 1961-015ER
Orbit
LEO
Last TLE update
10 hours ago
Origin
Manufacturer
Unknown
Mission
Spacecraft
Bus & Motor
Unknown
Mass
Unknown
Launch date (UTC)
1961-06-29 (64 years ago)
Launch vehicle
Unknown
Launch site
Air Force Eastern Test Range (AFETR)
Object type
Payload
Rocket body
Debris
Shape & HBR
Unknown
Radar Cross Section
Small (<0.1 m²)

Expand to show TLE details & history

TLE from 10 hours ago
0 THOR ABLESTAR DEB
1 00416U 61015ER  25189.87774238  .00000440  00000-0  26713-3 0  9995
2 00416  66.4911  78.7767 0072866  34.9852 325.5992 14.14318138283295
Epoch: 2025-07-08T21:03Z
TLE epoch observation values (Epoch: 2025-07-08T21:03:56.941Z)
Latitude
-0.00002°
Longitude
-164.27698°
Altitude
803.402 km
Speed
7.474 km/s
True Right ascension
05h 15m 06s
True Declination
0° 00' 00"
Sunlit
Object was in daylight at epoch
Visualization orbit readout
Latitude
-49.52704°
Longitude
45.16882°
Altitude
912.035 km
Speed
7.37 km/s
Apparent Right ascension
02h 11m 15s
Apparent Declination
-86° 52' 04"
Sunlit
Object is in full shadow
Visualization observer readout
Local Sidereal Time
18:49:04
Azimuth
176.116° S
Elevation
-40.951°
Doppler factor
1
Orbital elements
Apogee altitude
895.662 km
Perigee altitude
790.426 km
Semi-major axis
7,221.181 km
Eccentricity
0.00729
Inclination
66.4911°
RAAN
78.7767°
Arg. of periapsis
34.9852°
True anomaly
Unknown
Mean anomaly
325.5992°
Eccentric anomaly
Unknown
Mean motion
3.53697 °/min
Orbital period
101.78 mins
BSTAR
0.00026713
Loading maneuver chart data...
Loading SW <> Apogee altitude chart data...

THOR ABLESTAR DEB Visibility forecast

Observer location: undefined°, undefined°

Span
Click to sort rows by Start time (UTC) header in descending order
Start Az.
Max El. time (UTC)
Max El. Az.
Max El.
End time (UTC)
End Az.
9 mins2025-07-09 17:32:42.532Z177.269° S2025-07-09 17:37:42.532Z99.857° ESE31.732°2025-07-09 17:41:42.532Z46.979° ENE
7 mins2025-07-09 19:18:42.532Z259.095° W2025-07-09 19:21:42.532Z304.234° NW26.42°2025-07-09 19:25:42.532Z4.145° NNE
8 mins2025-07-10 02:27:42.532Z354.25° N2025-07-10 02:31:42.532Z59.222° ENE30.674°2025-07-10 02:35:42.532Z113.984° SE
8 mins2025-07-10 04:12:42.532Z301.625° NW2025-07-10 04:15:42.532Z256.354° W29.344°2025-07-10 04:20:42.532Z188.529° SSW
|